Weather History for Ireland West Airport Knock, Ireland

Change the Weather History Date:

Monday, October 3, 2011

  Actual Average Record
Temperature  
Mean Temperature 52 °F -  
Max Temperature 56 °F - - ()
Min Temperature 48 °F - - ()
Degree Days  
Heating Degree Days 13    
Growing Degree Days 2 (Base 50)    
Moisture  
Dew Point 50 °F    
Average Humidity 88    
Maximum Humidity 100    
Minimum Humidity 63    
Precipitation  
Precipitation 0.04 in - - ()
Sea Level Pressure  
Sea Level Pressure 29.86 in    
Wind  
Wind Speed 16 mph ()    
Max Wind Speed 28 mph    
Max Gust Speed 37 mph    
Visibility 5.2 miles    
Events Fog , Rain    
T = Trace of Precipitation, MM = Missing Value Source: Averaged Metar Reports

Daily Weather History Graph

Daily Weather History Graph

Search for Another Location

Airport:

Trip Planner

Search our weather history database for the weather conditions in past years. The results will help you decide how hot, cold, wet, or windy it might be!

Date:

Astronomy

Oct. 03, 2011 Rise Set
Actual Time 7:39 AM IST 7:07 PM IST
Civil Twilight 7:04 AM IST 7:42 PM IST
Nautical Twilight 6:23 AM IST 8:23 PM IST
Astronomical Twilight 5:41 AM IST 9:05 PM IST
Moon 3:17 PM IST (10/3) 11:07 PM IST (10/3)
Length of Visible Light 12h 38m
Length of Day
11h 27m
Waxing Crescent, 43% of the Moon is Illuminated
Oct 3
Waxing Crescent
Oct 4
First Quarter
Oct 12
Full
Oct 20
Last Quarter
Oct 26
New

Hourly Weather History & Observations

Time (IST) Temp. Dew Point Humidity Pressure Visibility Wind Dir Wind Speed Gust Speed Precip Events Conditions
1:00 AM 50 °F 48 °F 90% 30.00 in - SSW 17.9 mph - -  
6:00 AM 53.6 °F 53.6 °F 100% 29.86 in 0.3 mi South 10.4 mph - N/A Fog Light Drizzle
6:30 AM 53.6 °F 53.6 °F 100% 29.83 in 0.3 mi SSW 17.3 mph - N/A Fog Light Drizzle
7:00 AM 54 °F 54 °F 100% 29.84 in 0 mi SSW 17.9 mph - - Rain Light Drizzle
7:00 AM 53.6 °F 53.6 °F 100% 29.83 in 0.3 mi SSW 17.3 mph - N/A Fog Light Drizzle
7:30 AM 55.4 °F 55.4 °F 100% 29.80 in 0.3 mi SSW 19.6 mph - N/A Fog Light Drizzle
8:00 AM 55.4 °F 55.4 °F 100% 29.80 in 1.6 mi SSW 17.3 mph - N/A   Light Drizzle
8:30 AM 55.4 °F 55.4 °F 100% 29.83 in 3.1 mi SSW 18.4 mph 32.2 mph N/A   Light Drizzle
9:00 AM 55.4 °F 55.4 °F 100% 29.80 in 6.2 mi SSW 18.4 mph 29.9 mph N/A   Mostly Cloudy
9:30 AM 55.4 °F 55.4 °F 100% 29.77 in 6.2 mi SSW 18.4 mph - N/A   Mostly Cloudy
10:00 AM 55.4 °F 55.4 °F 100% 29.77 in 6.2 mi SSW 15.0 mph - N/A   Scattered Clouds
10:30 AM 57.2 °F 53.6 °F 88% 29.77 in 6.2 mi SSW 18.4 mph 31.1 mph N/A   Mostly Cloudy
11:00 AM 55.4 °F 53.6 °F 94% 29.80 in 6.2 mi SW 18.4 mph 29.9 mph N/A Rain Light Rain
11:30 AM 55.4 °F 53.6 °F 94% 29.80 in 6.2 mi SW 11.5 mph - N/A Rain Light Rain
12:00 PM 55.4 °F 53.6 °F 94% 29.80 in 6.2 mi SW 13.8 mph - N/A   Mostly Cloudy
12:30 PM 55.4 °F 53.6 °F 94% 29.80 in 3.1 mi WSW 17.3 mph - N/A Rain Light Rain
1:00 PM 53.6 °F 53.6 °F 100% 29.83 in 5.0 mi WSW 23.0 mph 35.7 mph N/A Rain Rain
1:30 PM 53.6 °F 51.8 °F 94% 29.83 in 6.2 mi West 23.0 mph - N/A   Mostly Cloudy
2:00 PM 53.6 °F 48.2 °F 82% 29.86 in 6.2 mi West 27.6 mph - N/A   Mostly Cloudy
2:30 PM 55.4 °F 48.2 °F 77% 29.86 in 6.2 mi West 24.2 mph 35.7 mph N/A   Scattered Clouds
3:00 PM 53.6 °F 44.6 °F 72% 29.89 in 6.2 mi West 25.3 mph 36.8 mph N/A   Mostly Cloudy
3:30 PM 53.6 °F 46.4 °F 77% 29.89 in 6.2 mi West 24.2 mph - N/A   Mostly Cloudy
4:00 PM 55.4 °F 42.8 °F 63% 29.92 in 6.2 mi West 23.0 mph - N/A   Scattered Clouds
4:30 PM 53.6 °F 44.6 °F 72% 29.92 in 6.2 mi West 20.7 mph 32.2 mph N/A   Scattered Clouds
5:00 PM 55.4 °F 44.6 °F 67% 29.92 in 6.2 mi West 18.4 mph 29.9 mph N/A   Scattered Clouds
5:30 PM 53.6 °F 44.6 °F 72% 29.92 in 6.2 mi West 20.7 mph - N/A   Scattered Clouds
6:00 PM 53.6 °F 44.6 °F 72% 29.95 in 6.2 mi WSW 16.1 mph - N/A   Scattered Clouds
6:30 PM 51.8 °F 46.4 °F 82% 29.95 in 6.2 mi WSW 11.5 mph - N/A   Scattered Clouds
7:00 PM 50 °F 45 °F 78% 29.98 in 19 mi WSW 13.4 mph - -   Partly Cloudy
7:00 PM 50.0 °F 44.6 °F 82% 29.95 in 6.2 mi WSW 12.7 mph - N/A   Mostly Cloudy